This is the latest recevied weather packets stored in our database for station/object KE8KMM. If no packets are shown the sender has not sent any weather packets the latest 10 day(s).
| Time | Temp. | Humidity | Pressure | Rain* | Wind** | Luminosity | Snow |
|---|---|---|---|---|---|---|---|
| 1778072256 | 8.33° C | 96% | 1008.5 hPa | 0 mm | - | 91 W/m² | - |
| 1778071953 | 8.33° C | 96% | 1008.4 hPa | 0 mm | - | 78 W/m² | - |
| 1778071651 | 8.89° C | 96% | 1008.3 hPa | 0 mm | - | 91 W/m² | - |
| 1778071349 | 8.33° C | 96% | 1008 hPa | 0 mm | - | 95 W/m² | - |
| 1778071046 | 8.33° C | 96% | 1007.8 hPa | 0 mm | - | 98 W/m² | - |
| 1778070745 | 8.33° C | 96% | 1007.9 hPa | 0 mm | - | 44 W/m² | - |
| 1778070441 | 8.33° C | 96% | 1007.9 hPa | 0 mm | - | 38 W/m² | - |
| 1778070138 | 7.78° C | 96% | 1008.4 hPa | 0 mm | - | 50 W/m² | - |
| 1778069836 | 8.33° C | 96% | 1008.1 hPa | 0 mm | - | 22 W/m² | - |
| 1778069533 | 7.78° C | 96% | 1008 hPa | 0 mm | - | 17 W/m² | - |
| 1778069230 | 7.78° C | 96% | 1007.9 hPa | 0 mm | - | 22 W/m² | - |
| 1778068928 | 7.78° C | 96% | 1007.8 hPa | 0 mm | - | 23 W/m² | - |
| 1778068626 | 7.78° C | 96% | 1007.9 hPa | 0 mm | - | 21 W/m² | - |
| 1778068324 | 7.78° C | 96% | 1007.7 hPa | 0 mm | - | 22 W/m² | - |
| 1778068021 | 7.78° C | 96% | 1007.4 hPa | 0 mm | - | 18 W/m² | - |
| 1778067718 | 7.78° C | 96% | 1006.9 hPa | 1.78 mm | - | 19 W/m² | - |
| 1778067417 | 7.78° C | 96% | 1006.9 hPa | 0 mm | - | 16 W/m² | - |
| 1778067114 | 7.78° C | 96% | 1007.1 hPa | 0 mm | - | 18 W/m² | - |
| 1778066810 | 7.78° C | 96% | 1007.1 hPa | 0 mm | - | 10 W/m² | - |
| 1778066508 | 7.78° C | 96% | 1007.4 hPa | 0 mm | - | 5 W/m² | - |
| 1778066205 | 7.78° C | 96% | 1006.8 hPa | 0 mm | - | 4 W/m² | - |
| 1778065903 | 7.78° C | 96% | 1007.4 hPa | 0 mm | - | 3 W/m² | - |
| 1778065600 | 7.78° C | 96% | 1007.1 hPa | 0 mm | - | 3 W/m² | - |
| 1778065297 | 7.78° C | 96% | 1007.1 hPa | 0 mm | - | 3 W/m² | - |
| 1778064994 | 7.78° C | 96% | 1006.7 hPa | 0 mm | - | 1 W/m² | - |
* Rain latest hour (hover to see other rain measurements)
** Current wind speed in m/s (hover to see current wind gust speed)